Probability
29 39 42 32 45 52 71 74 68 84 84 71 71 71 68 71 65 71 71 68 68 71 77 52 77 74 55 68 48 68 61 58 58 45 35 32 32 29 55 55 45 32 42
42 48 48 48 48 55 71 81 81 77 81 81 84 84 68 58 65 61 74 71 74 68 61 74 68 71 71 71 71 71 58 48 52 45 29 29 35 45 23 42 45 45 48
45 55 55 55 58 55 65 61 81 84 84 81 71 77 84 74 58 68 71 68 65 74 74 71 68 71 68 68 71 74 71 55 52 48 29 26 32 35 29 39 45 58 58
35 48 52 61 61 65 65 74 87 87 90 87 71 74 74 65 71 68 71 68 65 65 61 65 65 65 61 74 65 58 68 68 45 52 55 42 35 29 29 35 29 48 58
35 48 55 61 58 55 61 71 87 87 87 87 87 90 74 71 68 65 77 71 71 65 61 61 68 65 68 65 61 71 68 65 55 45 45 39 39 35 29 35 39 35 35
26 32 48 58 58 55 61 68 87 84 84 84 84 87 90 87 84 77 71 65 68 68 61 61 65 68 65 71 68 68 68 71 65 58 48 52 45 39 35 35 55 42 29
42 39 45 52 58 55 65 71 81 84 84 84 87 87 87 87 84 74 77 68 55 68 74 61 71 65 71 74 74 74 68 71 71 71 58 39 48 48 52 55 52 39 35
45 35 32 48 55 52 55 68 77 77 81 81 87 87 84 81 71 84 71 71 58 48 68 71 77 81 77 68 77 71 71 74 74 61 68 61 45 42 48 55 58 45 39
39 32 39 52 55 58 61 61 71 74 74 74 77 74 74 77 77 84 81 71 74 55 58 65 71 74 77 81 77 71 74 77 71 68 74 68 55 52 45 48 45 48 32
35 35 42 48 55 52 61 65 68 65 68 68 68 68 71 71 71 68 74 74 74 65 65 58 55 65 71 74 77 74 74 71 68 74 74 71 48 52 55 48 48 48 55
39 48 42 52 52 58 61 58 61 65 65 65 65 65 65 65 68 68 68 68 68 68 65 68 65 65 61 71 81 77 77 71 68 65 58 58 58 52 52 45 45 45 45
42 45 52 48 55 52 61 61 65 65 68 65 65 65 65 61 61 61 58 61 65 65 68 68 68 68 65 71 77 68 65 61 65 65 65 61 58 58 55 52 45 48 48
52 55 61 58 58 58 58 61 61 65 61 65 65 61 61 61 61 58 61 61 61 61 61 65 68 68 65 65 65 71 65 61 65 55 58 58 58 58 55 55 45 48 42
58 58 58 61 58 55 65 65 61 61 65 65 65 61 61 61 58 55 55 58 55 58 58 61 61 58 58 58 61 61 61 61 55 58 58 58 58 61 45 48 48 48 45
55 58 61 61 61 61 61 61 65 65 58 61 61 61 61 55 55 55 55 58 55 45 48 52 55 52 45 45 55 52 48 48 45 45 48 52 48 39 48 42 45 48 42
52 55 52 55 55 58 61 55 61 65 68 65 61 55 55 55 55 52 48 52 45 52 52 52 45 48 35 29 23 45 52 48 48 45 45 45 42 19 6 3 3 13 35
42 45 42 45 52 61 58 55 65 61 61 61 61 58 61 52 52 45 45 48 45 42 45 45 45 48 45 19 10 6 42 39 45 48 42 35 19 23 39 13 3 3 0
32 35 35 39 42 45 52 55 55 65 65 61 58 58 55 52 52 48 52 48 45 42 45 45 45 45 42 26 6 3 35 45 48 42 35 29 32 26 32 29 29 32 19
35 35 26 39 39 42 48 48 52 52 52 52 45 42 48 45 45 48 48 48 45 45 45 42 45 48 42 16 6 0 39 39 35 32 32 29 29 16 3 26 29 29 26
29 26 32 39 39 45 45 52 48 48 45 39 39 35 29 32 32 39 39 39 39 42 39 39 42 39 35 16 0 0 23 29 29 32 32 16 23 13 0 23 26 23 26
26 23 29 29 35 42 39 42 39 39 32 29 29 29 29 32 32 32 35 35 32 35 32 32 32 32 29 16 3 0 16 16 23 26 29 26 0 0 0 3 19 16 10
29 26 26 29 26 32 35 39 39 32 26 29 29 29 29 26 29 32 29 26 26 26 23 23 23 23 19 16 3 0 0 10 13 16 16 16 0 0 0 0 3 3 3
16 13 16 19 23 23 29 32 26 29 26 26 26 23 23 23 26 26 26 26 26 23 19 16 16 13 13 13 0 0 0 0 6 6 6 0 0 0 0 0 0 3 3
19 13 16 16 19 19 19 19 19 26 29 26 23 23 23 19 23 29 23 23 23 23 13 13 13 10 10 10 6 0 0 0 0 3 3 0 0 0 0 0 0 6 6
13 19 23 16 16 19 23 13 16 19 26 23 23 19 19 19 19 19 16 16 19 13 13 13 13 13 13 6 6 6 3 3 3 3 3 3 3 6 6 6 6 6 6
16 19 19 19 19 13 13 19 19 19 26 26 19 16 16 16 13 10 10 0 3 3 6 10 10 10 10 0 0 0 0 0 0 3 3 3 3 3 3 3 6 6 6
Height
5900 5899 5898 5897 5896 5895 5894 5893 5892 5892 5891 5891 5891 5892 5892 5892 5892 5893 5893 5893 5893 5894 5895 5896 5896 5897 5897 5898 5898 5898 5899 5899 5900 5901 5901 5901 5901 5901 5901 5901 5901 5900 5900
5901 5900 5898 5897 5896 5895 5894 5893 5893 5892 5892 5892 5892 5892 5892 5892 5893 5893 5893 5893 5893 5893 5894 5895 5896 5896 5897 5897 5897 5897 5898 5898 5899 5899 5899 5900 5900 5900 5899 5899 5899 5898 5898
5900 5900 5898 5897 5896 5895 5894 5894 5893 5893 5892 5892 5892 5892 5892 5892 5892 5893 5893 5893 5893 5893 5893 5894 5895 5895 5895 5896 5896 5896 5897 5897 5897 5897 5897 5898 5898 5898 5898 5897 5897 5896 5896
5899 5898 5898 5897 5896 5895 5894 5893 5893 5893 5892 5892 5892 5892 5892 5892 5892 5892 5892 5892 5892 5892 5892 5893 5893 5893 5894 5894 5895 5895 5895 5895 5895 5895 5895 5895 5895 5895 5895 5895 5894 5894 5893
5897 5897 5896 5895 5894 5894 5893 5892 5892 5892 5892 5891 5891 5891 5891 5891 5891 5891 5891 5890 5890 5891 5891 5891 5891 5892 5892 5892 5893 5893 5893 5893 5893 5893 5893 5892 5892 5892 5892 5892 5891 5891 5890
5895 5895 5894 5893 5893 5892 5891 5891 5890 5890 5890 5889 5889 5889 5889 5889 5889 5889 5889 5889 5888 5889 5889 5889 5889 5889 5890 5890 5890 5890 5891 5891 5890 5890 5890 5890 5890 5890 5889 5889 5888 5888 5887
5892 5892 5891 5891 5891 5890 5889 5889 5889 5888 5888 5887 5887 5887 5886 5887 5887 5886 5887 5887 5887 5887 5886 5886 5886 5887 5887 5887 5887 5887 5887 5887 5887 5887 5886 5886 5886 5886 5886 5885 5885 5884 5883
5888 5888 5888 5888 5887 5887 5887 5886 5886 5885 5885 5885 5885 5884 5884 5884 5884 5883 5883 5884 5884 5884 5883 5883 5883 5883 5884 5884 5884 5884 5884 5884 5883 5883 5882 5882 5882 5882 5881 5881 5881 5880 5880
5884 5884 5884 5884 5884 5883 5883 5883 5883 5882 5882 5882 5881 5881 5881 5881 5880 5880 5880 5880 5880 5880 5880 5879 5879 5879 5880 5880 5880 5879 5879 5879 5879 5879 5878 5878 5877 5877 5876 5876 5876 5876 5875
5879 5879 5880 5880 5879 5879 5879 5879 5879 5878 5878 5878 5878 5877 5877 5877 5876 5876 5876 5876 5876 5876 5876 5876 5875 5875 5875 5875 5875 5875 5874 5874 5874 5873 5873 5873 5872 5872 5871 5871 5870 5870 5870
5874 5874 5875 5875 5875 5875 5875 5875 5874 5874 5874 5874 5873 5873 5873 5872 5872 5872 5872 5872 5872 5872 5871 5871 5871 5871 5870 5870 5870 5870 5869 5868 5868 5868 5867 5867 5867 5866 5866 5865 5865 5864 5864
5868 5869 5869 5869 5869 5870 5870 5870 5870 5869 5869 5869 5869 5868 5868 5868 5867 5867 5867 5867 5867 5867 5867 5866 5866 5866 5865 5865 5865 5864 5864 5863 5862 5862 5861 5860 5860 5860 5860 5859 5859 5858 5858
5862 5862 5863 5863 5863 5864 5864 5864 5865 5864 5864 5864 5863 5863 5863 5862 5862 5862 5861 5861 5861 5861 5861 5861 5861 5861 5860 5860 5859 5859 5858 5857 5856 5855 5855 5854 5854 5854 5853 5853 5852 5852 5851
5854 5855 5856 5856 5857 5857 5858 5858 5859 5858 5858 5857 5857 5857 5857 5857 5856 5856 5856 5856 5856 5855 5855 5855 5855 5855 5854 5854 5853 5852 5852 5851 5850 5849 5848 5848 5848 5847 5846 5846 5845 5845 5844
5846 5847 5848 5849 5850 5850 5851 5851 5852 5852 5851 5851 5851 5851 5851 5850 5850 5850 5850 5849 5849 5849 5849 5848 5848 5848 5848 5847 5846 5846 5845 5844 5843 5842 5842 5841 5840 5840 5839 5839 5838 5837 5836
5838 5839 5839 5840 5841 5842 5843 5844 5844 5845 5844 5844 5844 5844 5843 5843 5843 5843 5842 5842 5842 5841 5841 5841 5840 5840 5840 5839 5839 5838 5837 5836 5835 5834 5834 5833 5833 5832 5831 5830 5829 5828 5827
5828 5829 5830 5831 5833 5834 5835 5836 5836 5836 5836 5836 5836 5836 5836 5835 5835 5835 5834 5834 5833 5833 5832 5832 5832 5832 5831 5831 5831 5830 5829 5828 5827 5826 5825 5824 5824 5823 5822 5821 5820 5819 5818
5819 5819 5820 5821 5823 5824 5825 5827 5827 5828 5828 5828 5828 5828 5828 5827 5827 5827 5826 5825 5825 5824 5823 5823 5823 5822 5822 5822 5821 5820 5820 5819 5818 5817 5816 5815 5814 5813 5812 5811 5810 5809 5807
5809 5810 5810 5811 5812 5814 5815 5816 5817 5818 5819 5819 5819 5819 5819 5818 5818 5818 5817 5816 5816 5815 5813 5813 5813 5813 5812 5812 5811 5811 5810 5809 5809 5807 5806 5805 5804 5802 5801 5800 5799 5798 5797
5799 5799 5800 5801 5802 5803 5804 5806 5807 5808 5809 5809 5809 5809 5809 5809 5809 5808 5808 5807 5806 5806 5805 5804 5804 5803 5802 5802 5802 5801 5800 5800 5799 5798 5796 5795 5793 5792 5790 5789 5788 5787 5785
5788 5789 5790 5791 5792 5793 5794 5795 5796 5797 5798 5799 5799 5799 5799 5799 5799 5799 5798 5797 5796 5796 5795 5794 5794 5793 5793 5792 5792 5791 5790 5789 5788 5787 5785 5784 5782 5780 5778 5777 5776 5775 5774
5778 5778 5779 5780 5781 5783 5784 5785 5785 5786 5787 5787 5788 5789 5789 5789 5788 5788 5788 5787 5786 5785 5784 5784 5784 5783 5783 5782 5782 5781 5780 5778 5777 5776 5775 5773 5771 5769 5767 5765 5764 5763 5761
5767 5767 5768 5769 5771 5772 5773 5773 5774 5775 5775 5776 5777 5777 5777 5777 5777 5777 5777 5776 5775 5774 5774 5774 5774 5773 5773 5772 5771 5770 5769 5767 5766 5764 5763 5761 5759 5757 5755 5754 5752 5750 5749
5755 5756 5756 5758 5759 5760 5761 5762 5763 5763 5764 5765 5765 5765 5766 5766 5766 5766 5765 5765 5765 5765 5764 5764 5763 5763 5762 5761 5760 5759 5757 5756 5754 5752 5751 5749 5747 5745 5744 5742 5740 5738 5737
5744 5744 5745 5746 5747 5748 5749 5750 5751 5751 5752 5753 5754 5754 5754 5754 5754 5755 5755 5755 5755 5754 5754 5754 5753 5752 5752 5750 5749 5748 5746 5744 5742 5740 5739 5737 5735 5733 5731 5729 5728 5726 5724
5732 5733 5734 5735 5736 5737 5738 5739 5740 5740 5741 5741 5742 5742 5743 5743 5744 5744 5744 5743 5743 5743 5743 5742 5742 5741 5740 5739 5737 5736 5734 5733 5731 5729 5727 5725 5722 5720 5718 5716 5715 5713 5712
Wind_Speed
7 6 6 5 5 4 3 4 3 2 2 2 2 2 3 3 4 4 4 4 5 5 5 5 5 4 4 4 4 5 5 5 5 5 6 6 6 6 6 7 7 8 9
6 6 6 6 5 5 4 3 3 2 1 1 0 0 1 2 3 3 3 4 4 5 5 5 5 5 5 5 5 5 5 5 5 5 6 7 7 7 8 8 8 9 10
6 6 6 6 6 5 5 4 3 3 2 2 2 2 2 3 3 3 4 4 5 5 6 6 6 6 6 6 6 6 6 6 6 7 7 8 8 9 9 9 9 10 10
7 7 7 6 6 6 6 5 5 5 5 4 4 4 4 4 4 4 5 5 6 6 6 7 7 7 7 7 7 8 8 8 8 9 9 9 10 10 10 11 11 12 11
8 8 7 7 8 8 7 7 6 6 6 6 6 5 5 6 6 6 6 6 7 7 7 7 7 8 8 8 9 10 10 10 10 10 11 11 11 12 12 12 13 13 13
11 10 9 9 9 9 9 8 8 8 8 8 8 8 7 8 8 8 8 8 8 8 8 9 9 9 10 10 10 11 11 12 12 12 13 13 13 13 14 14 14 15 15
12 12 11 12 11 11 10 10 9 9 9 9 10 9 9 9 10 10 10 10 10 10 10 11 11 12 12 12 12 13 13 13 14 14 15 15 15 15 16 16 16 16 17
14 14 13 13 12 12 12 11 11 11 11 11 11 11 12 11 12 12 12 12 12 12 12 13 13 13 14 14 14 15 15 16 16 16 16 17 17 17 17 17 18 18 18
16 16 15 15 14 14 14 13 12 12 12 13 13 12 13 13 14 14 14 13 13 13 14 14 15 16 16 17 18 18 18 18 18 18 18 18 18 18 19 19 19 19 19
18 18 17 17 17 16 15 14 14 13 14 15 15 14 14 14 15 15 14 15 15 15 15 16 17 17 18 19 19 19 20 20 20 20 21 21 20 20 20 20 20 20 21
20 20 19 18 18 18 17 16 16 15 16 16 16 16 16 16 15 15 16 17 17 17 18 18 18 19 20 20 20 20 21 22 22 21 22 22 21 22 22 21 21 21 21
22 22 22 21 20 20 19 18 18 18 18 18 18 18 18 18 18 17 18 19 19 19 20 20 20 20 21 21 21 21 21 21 22 22 23 23 23 23 23 23 23 23 23
24 24 24 24 23 22 21 20 20 20 20 20 20 20 20 20 20 19 20 21 21 22 22 22 23 22 22 23 23 23 23 23 23 23 23 23 24 24 25 25 25 26 26
26 26 26 25 25 23 23 22 22 22 22 22 22 22 22 22 22 22 23 23 24 24 24 25 25 25 25 25 26 25 25 25 25 24 25 25 26 27 27 27 27 28 28
27 28 28 28 27 26 25 24 24 23 23 24 24 24 24 24 24 24 25 26 27 27 27 27 28 28 27 27 28 29 29 28 27 27 27 27 28 29 29 30 30 30 30
29 29 30 30 30 28 27 26 26 26 26 26 26 27 27 26 27 27 27 28 29 30 31 31 31 30 30 30 29 30 31 32 31 30 30 30 30 31 32 32 33 33 33
30 30 30 31 31 30 30 29 29 28 29 29 29 29 28 28 29 29 30 31 31 32 32 33 33 33 33 32 32 33 33 33 32 32 33 33 34 34 34 35 35 36 36
32 32 32 32 33 32 32 31 31 31 31 31 31 31 31 30 31 31 32 32 32 33 34 35 35 35 35 35 34 34 34 34 34 34 34 35 36 36 37 37 37 38 37
33 33 34 34 34 34 34 33 33 33 33 33 33 33 33 34 34 33 33 33 33 34 34 35 35 35 36 36 35 34 35 35 35 35 35 36 36 37 38 39 39 39 39
34 34 34 35 35 35 34 35 35 35 35 34 34 35 35 35 35 35 35 34 35 34 35 35 36 36 35 35 35 35 35 36 36 36 36 37 38 39 39 40 41 41 39
35 35 34 34 35 35 35 36 37 37 36 36 36 36 37 37 37 37 37 36 36 37 36 36 36 36 35 34 35 35 36 37 37 38 38 38 39 39 40 41 40 40 39
35 35 35 35 35 35 36 37 37 37 37 38 37 37 38 39 39 39 39 39 38 38 37 36 35 35 35 35 36 38 38 38 39 39 39 39 40 40 41 40 41 41 40
35 36 36 36 36 36 37 38 38 38 39 39 39 38 38 39 39 39 39 39 39 38 37 37 37 36 35 36 37 38 39 39 40 40 40 40 39 39 39 40 40 40 40
34 35 35 35 36 36 37 38 38 38 39 39 39 38 38 39 39 39 38 38 38 37 35 36 36 36 37 38 38 38 39 40 40 40 40 40 40 41 41 40 40 40 39
34 34 34 35 35 36 37 37 38 38 38 38 38 38 39 38 38 39 39 38 37 36 36 36 37 37 37 38 39 39 39 39 40 41 41 41 41 41 41 42 42 41 40
34 34 34 34 35 36 36 37 37 37 38 38 38 38 38 38 38 37 38 38 37 37 37 37 37 38 38 38 38 38 38 39 39 39 40 41 41 41 41 41 40 39 38
Wind_Direction
11 11 9 6 10 10 9 11 11 20 50 94 105 120 138 142 160 164 165 173 182 190 197 199 198 203 212 215 220 225 227 235 235 238 241 249 258 267 274 278 276 272 273
352 355 350 345 343 348 352 348 348 353 16 44 352 221 201 193 185 191 197 204 204 204 208 214 218 224 231 233 235 235 238 243 247 257 258 263 268 275 278 279 277 275 274
321 323 325 325 326 324 326 320 307 314 316 305 292 277 258 242 232 231 231 229 225 226 226 228 235 239 241 242 245 244 250 256 260 263 265 265 268 277 284 285 284 283 282
294 297 302 305 310 306 304 302 293 292 293 282 271 268 264 258 259 253 245 241 240 243 245 245 248 248 249 253 257 260 261 265 266 269 269 268 267 272 280 284 284 285 286
283 278 282 289 294 293 290 288 287 288 281 275 275 276 265 260 261 258 254 251 248 251 255 258 255 253 256 260 263 266 267 272 270 271 273 274 273 275 281 283 283 284 287
276 271 269 275 280 283 282 283 285 283 278 271 271 269 266 267 265 263 261 259 256 254 258 262 259 258 260 264 267 266 268 271 273 272 274 274 275 279 282 283 283 284 286
270 266 266 268 272 275 274 277 278 279 276 272 269 266 262 263 266 266 261 260 260 261 263 263 262 259 260 263 267 268 269 274 275 275 273 271 273 277 279 278 279 281 284
266 263 268 269 270 271 270 271 273 273 270 271 270 267 267 270 268 263 260 259 262 263 263 263 263 262 260 262 267 270 271 276 277 275 274 272 271 274 276 277 277 278 281
266 265 264 266 267 270 267 266 268 270 271 271 272 271 272 273 271 267 265 261 263 265 265 265 265 265 267 268 268 270 271 274 275 275 275 274 274 275 276 277 277 278 279
261 262 259 262 264 266 268 267 267 268 269 272 272 272 272 272 272 267 264 264 264 265 266 267 267 268 270 271 271 271 269 272 274 273 273 274 275 275 275 275 277 277 278
257 258 258 260 263 264 264 265 266 269 270 271 271 272 270 270 271 266 262 265 266 266 266 267 267 269 269 270 272 273 272 271 271 273 272 271 272 274 275 274 276 279 280
255 256 257 259 261 264 264 264 264 266 269 270 270 271 272 271 270 267 263 264 265 265 265 266 268 267 269 270 272 273 273 273 274 275 274 272 272 273 274 275 276 278 279
255 256 257 259 261 261 261 262 264 266 268 269 269 270 272 270 268 268 265 264 264 265 264 266 266 268 269 271 273 273 274 275 276 275 274 272 271 272 274 275 277 278 279
255 255 256 258 259 259 259 261 262 265 267 268 269 270 271 269 268 268 268 266 264 265 264 265 267 268 270 271 272 273 274 274 277 274 273 274 273 274 274 275 276 278 278
256 256 256 256 256 258 258 259 261 263 265 268 270 271 270 269 268 268 267 266 266 265 265 265 266 267 269 270 271 272 273 273 275 275 275 275 274 274 274 276 276 278 279
256 257 257 256 256 257 258 258 260 262 264 266 268 270 269 269 269 268 268 268 268 267 266 266 266 266 267 269 270 272 273 272 272 274 276 275 275 276 275 277 276 277 278
256 256 256 254 256 257 259 259 259 261 264 266 268 270 270 270 271 270 270 270 270 269 269 268 267 266 268 269 271 272 272 272 272 274 275 276 276 277 277 277 277 278 278
257 256 255 255 256 258 259 260 260 261 264 267 269 270 271 272 272 273 272 270 270 271 271 270 269 269 269 269 270 271 272 272 274 275 276 278 279 277 276 277 278 279 277
258 258 256 255 256 257 258 259 261 261 263 265 267 268 270 272 273 272 272 270 270 272 272 270 270 270 271 270 269 271 272 273 274 276 277 279 280 278 277 277 278 278 278
258 258 259 259 258 257 258 259 260 262 263 264 265 267 268 271 271 271 272 270 269 271 272 271 270 271 272 271 270 272 273 274 276 277 278 279 279 279 278 277 278 278 277
260 260 260 260 259 258 258 258 260 261 262 263 265 267 268 269 270 270 270 270 270 272 271 270 271 271 271 271 272 274 275 276 277 278 279 278 279 279 278 277 277 277 275
261 262 262 261 259 259 260 260 261 262 262 263 264 266 267 268 269 268 268 269 272 272 272 271 272 272 273 274 274 275 275 276 277 279 280 279 279 280 279 278 277 277 275
262 262 261 261 260 260 261 262 262 262 262 264 265 266 267 267 267 267 267 268 270 271 271 271 272 273 275 276 277 278 278 277 277 278 278 278 279 279 280 280 279 278 277
263 262 262 262 262 262 262 262 262 262 263 264 265 266 267 265 264 266 267 268 269 270 271 272 273 274 275 277 278 280 280 279 278 278 278 279 281 281 280 280 279 278 277
262 262 262 261 262 262 263 262 262 263 263 264 265 265 267 267 267 267 266 267 269 270 272 273 274 275 276 278 279 279 281 281 279 279 279 279 279 280 280 280 279 278 276
262 261 260 261 261 262 263 262 261 261 262 263 263 264 265 266 267 267 267 267 268 269 270 272 274 275 277 278 279 279 280 281 280 280 280 280 280 280 280 280 279 278 278